User: anonymous   Login
Location: Caltech
(34.1382°N, 118.1253°W)
Time: 07:57:22
(UTC-07:00)
Language:

OAO 2 Rocket - Orbit

View from above orbital plane
View from above orbital plane
View from above satellite
View from above satellite

Ground track
Ground track

The orbit data is extracted from the following two-line orbital elements,

1  3598U 68110B   16211.87083648 +.00000060 +00000-0 +18475-4 0  9991
2  3598 034.9948 357.1907 0048735 133.9366 226.5363 14.54234744498628
Epoch (UTC): 29 July 2016 20:54:00
Eccentricity: 0.0048735
inclination: 34.9948°
perigee height: 677 km
apogee height: 746 km
right ascension of ascending node: 357.1907°
argument of perigee: 133.9366°
revolutions per day: 14.54234744
mean anomaly at epoch: 226.5363°
orbit number at epoch: 49862

The dashed part of the orbit path shows where the satellite is in the earth's shadow,  

DLR